,,,PA_Meas_PMT16A,,PR_Meas_QMR101_102,,RH_Meas_QMH101,,SR_Meas_QMS101,,TA_Meas_QMH101,,GenWind,,GenWind,
date,time,status,PA,status,PR,status,RH,status,SR,status,TA,status,DirAvg,status,SpdAvg,
2011-09-29, 00:00:04,VALID,1004.77,VALID,0,VALID,83.8643,VALID,0,VALID,26.5466,VALID,25,VALID,1.0793,
2011-09-29, 00:01:04,VALID,1004.73,VALID,0,VALID,83.9329,VALID,0,VALID,26.5251,VALID,20,VALID,1.04141,
2011-09-29, 00:02:04,VALID,1004.75,VALID,0,VALID,84.2,VALID,0,VALID,26.5056,VALID,55,VALID,0.654688,
2011-09-29, 00:03:04,VALID,1004.75,VALID,0,VALID,84.1923,VALID,0,VALID,26.5076,VALID,39,VALID,0.637109,
2011-09-29, 00:04:04,VALID,1004.72,VALID,0,VALID,84.1313,VALID,0,VALID,26.4881,VALID,35,VALID,0.440625,
2011-09-29, 00:05:04,VALID,1004.75,VALID,0,VALID,84.2457,VALID,0,VALID,26.4881,VALID,70,VALID,0.943359,
2011-09-29, 00:06:04,VALID,1004.72,VALID,0,VALID,84.2762,VALID,0,VALID,26.4881,VALID,70,VALID,0.526172,
2011-09-29, 00:07:04,VALID,1004.71,VALID,0,VALID,84.2381,VALID,0,VALID,26.4687,VALID,54,VALID,0.689453,
2011-09-29, 00:08:04,VALID,1004.7,VALID,0,VALID,84.4212,VALID,0,VALID,26.4297,VALID,82,VALID,0.154297,
2011-09-29, 00:09:04,VALID,1004.7,VALID,0,VALID,84.6501,VALID,0,VALID,26.3907,VALID,40,VALID,0.496484,
2011-09-29, 00:10:04,VALID,1004.69,VALID,0,VALID,84.856,VALID,0,VALID,26.3518,VALID,86,VALID,0.158984,
2011-09-29, 00:11:04,VALID,1004.68,VALID,0,VALID,85.0849,VALID,0,VALID,26.3323,VALID,47,VALID,0.129688,
2011-09-29, 00:12:04,VALID,1004.69,VALID,0,VALID,85.1765,VALID,0,VALID,26.2524,VALID,75,VALID,0.477344,
2011-09-29, 00:13:04,VALID,1004.67,VALID,0,VALID,85.3824,VALID,0,VALID,26.2349,VALID,73,VALID,0.460156,
2011-09-29, 00:14:04,VALID,1004.67,VALID,0,VALID,85.4816,VALID,0,VALID,26.1745,VALID,79,VALID,0.611719,
2011-09-29, 00:15:04,VALID,1004.64,VALID,0,VALID,85.7181,VALID,0,VALID,26.1745,VALID,84,VALID,0.742578,
2011-09-29, 00:16:04,VALID,1004.62,VALID,0,VALID,85.8936,VALID,0,VALID,26.157,VALID,97,VALID,0.638672,
2011-09-29, 00:17:04,VALID,1004.61,VALID,0,VALID,86.1301,VALID,0,VALID,26.0791,VALID,97,VALID,0.702734,
2011-09-29, 00:18:04,VALID,1004.6,VALID,0,VALID,86.4047,VALID,0,VALID,26.0362,VALID,106,VALID,0.650391,
2011-09-29, 00:19:04,VALID,1004.57,VALID,0,VALID,86.3742,VALID,0,VALID,26.0791,VALID,106,VALID,0.455469,
2011-09-29, 00:20:04,VALID,1004.59,VALID,0,VALID,86.5573,VALID,0,VALID,26.0206,VALID,105,VALID,0.351172,
2011-09-29, 00:21:04,VALID,1004.57,VALID,0,VALID,86.7175,VALID,0,VALID,25.9602,VALID,96,VALID,0.824219,
2011-09-29, 00:22:04,VALID,1004.54,VALID,0,VALID,87.0837,VALID,0,VALID,25.9408,VALID,112,VALID,0.889844,
2011-09-29, 00:23:04,VALID,1004.54,VALID,0,VALID,87.2439,VALID,0,VALID,25.9817,VALID,123,VALID,0.889453,
2011-09-29, 00:24:04,VALID,1004.53,VALID,0,VALID,87.2362,VALID,0,VALID,25.9408,VALID,98,VALID,1.11563,
2011-09-29, 00:25:04,VALID,1004.57,VALID,0,VALID,87.282,VALID,0,VALID,26.0012,VALID,105,VALID,0.358203,
2011-09-29, 00:26:04,VALID,1004.54,VALID,0,VALID,87.3049,VALID,0,VALID,25.9622,VALID,106,VALID,0.752734,
2011-09-29, 00:27:04,VALID,1004.54,VALID,0,VALID,87.4422,VALID,0,VALID,25.9018,VALID,103,VALID,0.477344,
2011-09-29, 00:28:04,VALID,1004.56,VALID,0,VALID,87.5643,VALID,0,VALID,25.8823,VALID,103,VALID,0.492578,
2011-09-29, 00:29:04,VALID,1004.55,VALID,0,VALID,87.9076,VALID,0,VALID,25.8259,VALID,108,VALID,0.725391,
2011-09-29, 00:30:04,VALID,1004.51,VALID,0,VALID,88.2738,VALID,0,VALID,25.7265,VALID,143,VALID,0.777734,
2011-09-29, 00:31:04,VALID,1004.5,VALID,0,VALID,88.6781,VALID,0,VALID,25.6506,VALID,157,VALID,0.812109,
2011-09-29, 00:32:04,VALID,1004.47,VALID,0,VALID,88.9451,VALID,0,VALID,25.5727,VALID,152,VALID,0.646094,
2011-09-29, 00:33:04,VALID,1004.49,VALID,0,VALID,89.3342,VALID,0,VALID,25.4344,VALID,142,VALID,0.515625,
2011-09-29, 00:34:04,VALID,1004.46,VALID,0,VALID,89.6546,VALID,0,VALID,25.3779,VALID,141,VALID,0.393359,
2011-09-29, 00:35:04,VALID,1004.47,VALID,0,VALID,89.9674,VALID,0,VALID,25.2981,VALID,141,VALID,0.330859,
2011-09-29, 00:36:04,VALID,1004.48,VALID,0,VALID,89.975,VALID,0,VALID,25.2202,VALID,141,VALID,0.357812,
2011-09-29, 00:37:04,VALID,1004.44,VALID,0,VALID,90.1581,VALID,0,VALID,25.1248,VALID,121,VALID,0.378125,
2011-09-29, 00:38:04,VALID,1004.42,VALID,0,VALID,91.0431,VALID,0,VALID,24.9866,VALID,121,VALID,0.364062,
2011-09-29, 00:39:04,VALID,1004.41,VALID,0,VALID,91.0965,VALID,0,VALID,24.9087,VALID,104,VALID,0.487109,
2011-09-29, 00:40:04,VALID,1004.4,VALID,0,VALID,91.7068,VALID,0,VALID,24.8308,VALID,101,VALID,0.364062,
2011-09-29, 00:41:04,VALID,1004.38,VALID,0,VALID,91.6,VALID,0,VALID,24.7937,VALID,101,VALID,0.466016,
2011-09-29, 00:42:04,VALID,1004.38,VALID,0,VALID,91.8441,VALID,0,VALID,24.6964,VALID,71,VALID,0.530469,
2011-09-29, 00:43:04,VALID,1004.38,VALID,0,VALID,92.1798,VALID,0,VALID,24.6185,VALID,70,VALID,0.455078,
2011-09-29, 00:44:04,VALID,1004.37,VALID,0,VALID,92.4391,VALID,0,VALID,24.5193,VALID,70,VALID,0.417969,
2011-09-29, 00:45:04,VALID,1004.31,VALID,0,VALID,92.7138,VALID,0,VALID,24.4414,VALID,70,VALID,0.305859,
2011-09-29, 00:46:04,VALID,1004.31,VALID,0,VALID,93.1791,VALID,0,VALID,24.3812,VALID,70,VALID,0.368359,
2011-09-29, 00:47:04,VALID,1004.3,VALID,0,VALID,93.5224,VALID,0,VALID,24.383,VALID,70,VALID,0.329297,
2011-09-29, 00:48:04,VALID,1004.27,VALID,0,VALID,93.5606,VALID,0,VALID,24.3459,VALID,70,VALID,0.305469,
2011-09-29, 00:49:04,VALID,1004.27,VALID,0,VALID,93.7513,VALID,0,VALID,24.3052,VALID,70,VALID,0.326953,
2011-09-29, 00:50:04,VALID,1004.27,VALID,0,VALID,93.7589,VALID,0,VALID,24.2875,VALID,70,VALID,0.377344,
2011-09-29, 00:51:04,VALID,1004.26,VALID,0,VALID,93.9039,VALID,0,VALID,24.2486,VALID,47,VALID,0.588281,
2011-09-29, 00:52:04,VALID,1004.27,VALID,0,VALID,94.1251,VALID,0,VALID,24.2078,VALID,47,VALID,0.244922,
2011-09-29, 00:53:04,VALID,1004.26,VALID,0,VALID,94.0717,VALID,0,VALID,24.1884,VALID,47,VALID,0.483203,
2011-09-29, 00:54:04,VALID,1004.23,VALID,0,VALID,94.2243,VALID,0,VALID,24.2097,VALID,47,VALID,0.265625,
2011-09-29, 00:55:04,VALID,1004.23,VALID,0,VALID,94.4989,VALID,0,VALID,24.1884,VALID,47,VALID,0.236719,
2011-09-29, 00:56:04,VALID,1004.19,VALID,0,VALID,94.3845,VALID,0,VALID,24.1494,VALID,47,VALID,0.0503906,
2011-09-29, 00:57:04,VALID,1004.18,VALID,0,VALID,94.4227,VALID,0,VALID,24.1707,VALID,47,VALID,0.340625,
2011-09-29, 00:58:04,VALID,1004.18,VALID,0,VALID,94.6363,VALID,0,VALID,24.1689,VALID,47,VALID,0.220313,
2011-09-29, 00:59:04,VALID,1004.17,VALID,0,VALID,94.7202,VALID,0,VALID,24.1689,VALID,47,VALID,0.213281,
2011-09-29, 01:00:04,VALID,1004.16,VALID,0,VALID,94.7583,VALID,0,VALID,24.1689,VALID,47,VALID,0.135547,
2011-09-29, 01:01:04,VALID,1004.17,VALID,0,VALID,94.7583,VALID,0,VALID,24.1494,VALID,47,VALID,0.368359,
2011-09-29, 01:02:04,VALID,1004.16,VALID,0,VALID,95.1474,VALID,0,VALID,24.2078,VALID,52,VALID,0.577344,
2011-09-29, 01:03:04,VALID,1004.18,VALID,0,VALID,94.9338,VALID,0,VALID,24.2468,VALID,53,VALID,0.30625,
2011-09-29, 01:04:04,VALID,1004.17,VALID,0,VALID,94.8804,VALID,0,VALID,24.2468,VALID,53,VALID,0.140625,
2011-09-29, 01:05:04,VALID,1004.18,VALID,0,VALID,95.0177,VALID,0,VALID,24.2857,VALID,53,VALID,0.219141,
2011-09-29, 01:06:04,VALID,1004.18,VALID,0,VALID,94.827,VALID,0,VALID,24.3052,VALID,53,VALID,0.326172,
2011-09-29, 01:07:04,VALID,1004.18,VALID,0,VALID,94.8346,VALID,0,VALID,24.3441,VALID,53,VALID,0.0992187,
2011-09-29, 01:08:04,VALID,1004.19,VALID,0,VALID,94.5905,VALID,0,VALID,24.3246,VALID,53,VALID,0.456641,
2011-09-29, 01:09:04,VALID,1004.2,VALID,0,VALID,94.5752,VALID,0,VALID,24.3636,VALID,53,VALID,0.341406,
2011-09-29, 01:10:04,VALID,1004.16,VALID,0,VALID,94.4074,VALID,0,VALID,24.3441,VALID,53,VALID,0.414453,
2011-09-29, 01:11:04,VALID,1004.16,VALID,0,VALID,94.2701,VALID,0,VALID,24.3246,VALID,53,VALID,0.533203,
2011-09-29, 01:12:04,VALID,1004.15,VALID,0,VALID,94.1633,VALID,0,VALID,24.2857,VALID,52,VALID,0.508203,
2011-09-29, 01:13:04,VALID,1004.13,VALID,0,VALID,94.1633,VALID,0.0815089,VALID,24.2468,VALID,52,VALID,0.336328,
2011-09-29, 01:14:04,VALID,1004.14,VALID,0,VALID,94.3082,VALID,0,VALID,24.2273,VALID,52,VALID,0.174609,
2011-09-29, 01:15:04,VALID,1004.14,VALID,0,VALID,94.4532,VALID,0,VALID,24.206,VALID,52,VALID,0.187891,
2011-09-29, 01:16:04,VALID,1004.1,VALID,0,VALID,94.5981,VALID,0,VALID,24.2273,VALID,52,VALID,0.0113281,
2011-09-29, 01:17:04,VALID,1004.11,VALID,0,VALID,94.6134,VALID,0,VALID,24.2255,VALID,52,VALID,0.0527344,
2011-09-29, 01:18:04,VALID,1004.07,VALID,0,VALID,94.1251,VALID,0,VALID,24.2468,VALID,52,VALID,0.425781,
2011-09-29, 01:19:04,VALID,1004.08,VALID,0,VALID,94.3616,VALID,0,VALID,24.2662,VALID,52,VALID,0.126563,
2011-09-29, 01:20:04,VALID,1004.1,VALID,0,VALID,94.3692,VALID,0,VALID,24.2857,VALID,52,VALID,0.471875,
2011-09-29, 01:21:04,VALID,1004.08,VALID,0,VALID,94.5447,VALID,0,VALID,24.2857,VALID,52,VALID,0.189844,
2011-09-29, 01:22:04,VALID,1004.07,VALID,0,VALID,94.4379,VALID,0,VALID,24.2857,VALID,52,VALID,0.264453,
2011-09-29, 01:23:04,VALID,1004.08,VALID,0,VALID,94.7049,VALID,0,VALID,24.2839,VALID,52,VALID,0.335156,
2011-09-29, 01:24:04,VALID,1004.08,VALID,0,VALID,94.6973,VALID,0,VALID,24.3052,VALID,52,VALID,0.251563,
2011-09-29, 01:25:04,VALID,1004.09,VALID,0,VALID,94.5829,VALID,0,VALID,24.3459,VALID,52,VALID,0.215234,
2011-09-29, 01:26:04,VALID,1004.07,VALID,0,VALID,94.3692,VALID,0,VALID,24.3636,VALID,52,VALID,0.0539063,
2011-09-29, 01:27:04,VALID,1004.06,VALID,0,VALID,94.354,VALID,0,VALID,24.383,VALID,52,VALID,0.000390625,
2011-09-29, 01:28:04,VALID,1004.04,VALID,0,VALID,94.0565,VALID,0,VALID,24.4414,VALID,52,VALID,0.378125,
2011-09-29, 01:29:04,VALID,1004.02,VALID,0,VALID,93.5377,VALID,0,VALID,24.4609,VALID,35,VALID,0.578906,
2011-09-29, 01:30:04,VALID,1003.98,VALID,0,VALID,93.2859,VALID,0,VALID,24.4804,VALID,35,VALID,0.171484,
2011-09-29, 01:31:04,VALID,1003.97,VALID,0,VALID,93.3622,VALID,0,VALID,24.4609,VALID,35,VALID,0.406641,
2011-09-29, 01:32:04,VALID,1003.94,VALID,0,VALID,93.4462,VALID,0,VALID,24.4609,VALID,35,VALID,0.53125,
2011-09-29, 01:33:04,VALID,1003.93,VALID,0,VALID,93.3622,VALID,0,VALID,24.4804,VALID,35,VALID,0.348437,
2011-09-29, 01:34:04,VALID,1003.89,VALID,0,VALID,93.4233,VALID,0.0815089,VALID,24.4609,VALID,35,VALID,0.34375,
2011-09-29, 01:35:04,VALID,1003.88,VALID,0,VALID,93.469,VALID,0,VALID,24.4804,VALID,35,VALID,0.222266,
2011-09-29, 01:36:04,VALID,1003.86,VALID,0,VALID,93.4767,VALID,0,VALID,24.4804,VALID,35,VALID,0.0726563,
2011-09-29, 01:37:04,VALID,1003.86,VALID,0,VALID,93.4156,VALID,0,VALID,24.4804,VALID,35,VALID,0.308203,
2011-09-29, 01:38:04,VALID,1003.85,VALID,0,VALID,93.4996,VALID,0.0815089,VALID,24.4785,VALID,35,VALID,0.130078,
2011-09-29, 01:39:04,VALID,1003.84,VALID,0,VALID,93.5911,VALID,0.0815089,VALID,24.4998,VALID,35,VALID,0.084375,
2011-09-29, 01:40:04,VALID,1003.88,VALID,0,VALID,93.4919,VALID,0,VALID,24.5193,VALID,35,VALID,0.330859,
2011-09-29, 01:41:04,VALID,1003.81,VALID,0,VALID,93.3241,VALID,0,VALID,24.5796,VALID,35,VALID,0.290625,
2011-09-29, 01:42:04,VALID,1003.83,VALID,0,VALID,93.202,VALID,0,VALID,24.5388,VALID,35,VALID,0.212109,
2011-09-29, 01:43:04,VALID,1003.83,VALID,0,VALID,93.3622,VALID,0,VALID,24.5582,VALID,34,VALID,0.448047,
2011-09-29, 01:44:04,VALID,1003.78,VALID,0,VALID,93.1868,VALID,0,VALID,24.5972,VALID,34,VALID,0.286328,
2011-09-29, 01:45:04,VALID,1003.81,VALID,0,VALID,93.1334,VALID,0,VALID,24.5972,VALID,34,VALID,0.164453,
2011-09-29, 01:46:05,VALID,1003.8,VALID,0,VALID,93.1334,VALID,0,VALID,24.5972,VALID,34,VALID,0.146094,
2011-09-29, 01:47:05,VALID,1003.81,VALID,0,VALID,93.1181,VALID,0,VALID,24.5369,VALID,34,VALID,0.255859,
2011-09-29, 01:48:05,VALID,1003.79,VALID,0,VALID,93.1257,VALID,0.0815089,VALID,24.5582,VALID,34,VALID,0.250391,
2011-09-29, 01:49:05,VALID,1003.8,VALID,0,VALID,93.2936,VALID,0,VALID,24.5193,VALID,34,VALID,0.234766,
2011-09-29, 01:50:05,VALID,1003.79,VALID,0,VALID,93.1563,VALID,0,VALID,24.4785,VALID,34,VALID,0.409375,
2011-09-29, 01:51:05,VALID,1003.8,VALID,0,VALID,93.2097,VALID,0.0815089,VALID,24.4785,VALID,34,VALID,0.329297,
2011-09-29, 01:52:05,VALID,1003.8,VALID,0,VALID,93.202,VALID,0.0815089,VALID,24.4609,VALID,34,VALID,0.458203,
2011-09-29, 01:53:05,VALID,1003.8,VALID,0,VALID,93.1868,VALID,0,VALID,24.4025,VALID,34,VALID,0.355859,
2011-09-29, 01:54:05,VALID,1003.77,VALID,0,VALID,93.3165,VALID,0,VALID,24.3422,VALID,34,VALID,0.332812,
2011-09-29, 01:55:05,VALID,1003.77,VALID,0,VALID,93.5606,VALID,0,VALID,24.3441,VALID,34,VALID,0.339453,
2011-09-29, 01:56:05,VALID,1003.76,VALID,0,VALID,93.7971,VALID,0,VALID,24.3052,VALID,34,VALID,0.255078,
2011-09-29, 01:57:05,VALID,1003.72,VALID,0,VALID,93.82,VALID,0,VALID,24.2857,VALID,34,VALID,0.269531,
2011-09-29, 01:58:05,VALID,1003.67,VALID,0,VALID,93.942,VALID,0,VALID,24.2255,VALID,34,VALID,0,
2011-09-29, 01:59:05,VALID,1003.67,VALID,0,VALID,94.0412,VALID,0,VALID,24.2468,VALID,34,VALID,0.234766,
2011-09-29, 02:00:05,VALID,1003.65,VALID,0,VALID,94.1709,VALID,0.0815089,VALID,24.2255,VALID,34,VALID,0.288672,
2011-09-29, 02:01:05,VALID,1003.66,VALID,0,VALID,94.1862,VALID,0.0815089,VALID,24.2255,VALID,34,VALID,0.339453,
2011-09-29, 02:02:05,VALID,1003.63,VALID,0,VALID,94.2548,VALID,0.0815089,VALID,24.206,VALID,34,VALID,0.267188,
2011-09-29, 02:03:05,VALID,1003.63,VALID,0,VALID,94.3082,VALID,0.0815089,VALID,24.1865,VALID,34,VALID,0.160938,
2011-09-29, 02:04:05,VALID,1003.64,VALID,0,VALID,94.2624,VALID,0.0815089,VALID,24.1865,VALID,34,VALID,0.140234,
2011-09-29, 02:05:05,VALID,1003.63,VALID,0,VALID,94.3921,VALID,0.0815089,VALID,24.206,VALID,34,VALID,0.122656,
2011-09-29, 02:06:05,VALID,1003.66,VALID,0,VALID,94.3235,VALID,0.0815089,VALID,24.2078,VALID,34,VALID,0.269922,
2011-09-29, 02:07:05,VALID,1003.64,VALID,0,VALID,94.3845,VALID,0.0815089,VALID,24.1865,VALID,34,VALID,0.314063,
2011-09-29, 02:08:05,VALID,1003.63,VALID,0,VALID,94.4455,VALID,0.0815089,VALID,24.206,VALID,34,VALID,0.30625,
2011-09-29, 02:09:05,VALID,1003.66,VALID,0,VALID,94.4379,VALID,0.0815089,VALID,24.1865,VALID,34,VALID,0.182812,
2011-09-29, 02:10:05,VALID,1003.65,VALID,0,VALID,94.5142,VALID,0.0815089,VALID,24.2255,VALID,34,VALID,0.274219,
2011-09-29, 02:11:05,VALID,1003.65,VALID,0,VALID,94.2548,VALID,0.0815089,VALID,24.206,VALID,34,VALID,0.512109,
2011-09-29, 02:12:05,VALID,1003.61,VALID,0,VALID,94.2014,VALID,0.0815089,VALID,24.1884,VALID,34,VALID,0.530078,
2011-09-29, 02:13:05,VALID,1003.63,VALID,0,VALID,94.3998,VALID,0.0815089,VALID,24.1494,VALID,32,VALID,0.794531,
2011-09-29, 02:14:05,VALID,1003.62,VALID,0,VALID,94.4532,VALID,0,VALID,24.1087,VALID,18,VALID,0.669531,
2011-09-29, 02:15:05,VALID,1003.64,VALID,0,VALID,94.3006,VALID,0.0815089,VALID,24.0892,VALID,18,VALID,0.575781,
2011-09-29, 02:16:05,VALID,1003.63,VALID,0,VALID,94.4227,VALID,0.0815089,VALID,24.0503,VALID,16,VALID,0.630469,
2011-09-29, 02:17:05,VALID,1003.61,VALID,0,VALID,94.4227,VALID,0,VALID,24.0326,VALID,16,VALID,0.591797,
2011-09-29, 02:18:05,VALID,1003.59,VALID,0,VALID,94.3616,VALID,0.0815089,VALID,23.9937,VALID,16,VALID,0.484766,
2011-09-29, 02:19:05,VALID,1003.58,VALID,0,VALID,94.621,VALID,0,VALID,23.953,VALID,16,VALID,0.360547,
2011-09-29, 02:20:05,VALID,1003.58,VALID,0,VALID,94.7049,VALID,0.0815089,VALID,23.9335,VALID,16,VALID,0.289844,
2011-09-29, 02:21:05,VALID,1003.52,VALID,0,VALID,94.8041,VALID,0.0815089,VALID,23.8946,VALID,16,VALID,0.151953,
2011-09-29, 02:22:05,VALID,1003.54,VALID,0,VALID,94.9338,VALID,0.0815089,VALID,23.8751,VALID,16,VALID,0.238672,
2011-09-29, 02:23:05,VALID,1003.54,VALID,0,VALID,94.9872,VALID,0.0815089,VALID,23.8964,VALID,16,VALID,0.341016,
2011-09-29, 02:24:05,VALID,1003.54,VALID,0,VALID,95.0482,VALID,0.0815089,VALID,23.8946,VALID,16,VALID,0.419141,
2011-09-29, 02:25:05,VALID,1003.55,VALID,0,VALID,95.1474,VALID,0,VALID,23.8964,VALID,16,VALID,0.419141,
2011-09-29, 02:26:05,VALID,1003.54,VALID,0,VALID,95.0864,VALID,0.0815089,VALID,23.8964,VALID,16,VALID,0.390625,
2011-09-29, 02:27:05,VALID,1003.55,VALID,0,VALID,95.0406,VALID,0.0815089,VALID,23.8769,VALID,16,VALID,0.391797,
2011-09-29, 02:28:05,VALID,1003.54,VALID,0,VALID,94.9719,VALID,0.0815089,VALID,23.8964,VALID,16,VALID,0.408594,
2011-09-29, 02:29:05,VALID,1003.56,VALID,0,VALID,94.9414,VALID,0,VALID,23.8964,VALID,16,VALID,0.290234,
2011-09-29, 02:30:05,VALID,1003.49,VALID,0,VALID,94.9262,VALID,0.0815089,VALID,23.8946,VALID,16,VALID,0.254687,
2011-09-29, 02:31:05,VALID,1003.5,VALID,0,VALID,94.9414,VALID,0,VALID,23.8964,VALID,16,VALID,0.307031,
2011-09-29, 02:32:05,VALID,1003.5,VALID,0,VALID,95.0864,VALID,0.0815089,VALID,23.8751,VALID,16,VALID,0.176172,
2011-09-29, 02:33:05,VALID,1003.48,VALID,0,VALID,95.0635,VALID,0.0815089,VALID,23.8964,VALID,16,VALID,0.314844,
2011-09-29, 02:34:05,VALID,1003.49,VALID,0,VALID,95.1093,VALID,0,VALID,23.8751,VALID,16,VALID,0.376563,
2011-09-29, 02:35:05,VALID,1003.48,VALID,0,VALID,95.1016,VALID,0.0815089,VALID,23.8946,VALID,16,VALID,0,
2011-09-29, 02:36:05,VALID,1003.46,VALID,0,VALID,95.1932,VALID,0.0815089,VALID,23.914,VALID,16,VALID,0,
2011-09-29, 02:37:05,VALID,1003.46,VALID,0,VALID,95.4983,VALID,0,VALID,23.9742,VALID,17,VALID,0.349609,
2011-09-29, 02:38:05,VALID,1003.48,VALID,0,VALID,95.5212,VALID,0,VALID,23.9937,VALID,64,VALID,0.439844,
2011-09-29, 02:39:05,VALID,1003.46,VALID,0,VALID,95.361,VALID,0,VALID,23.9919,VALID,78,VALID,0.124219,
2011-09-29, 02:40:05,VALID,1003.47,VALID,0,VALID,95.2466,VALID,0.0815089,VALID,24.0132,VALID,78,VALID,0.01875,
2011-09-29, 02:41:05,VALID,1003.47,VALID,0,VALID,95.155,VALID,0.0815089,VALID,24.0326,VALID,78,VALID,0.121875,
2011-09-29, 02:42:05,VALID,1003.48,VALID,0,VALID,94.9796,VALID,0.0815089,VALID,24.0114,VALID,76,VALID,0.324609,
2011-09-29, 02:43:05,VALID,1003.48,VALID,0,VALID,95.0024,VALID,0,VALID,24.0326,VALID,38,VALID,0.571094,
2011-09-29, 02:44:05,VALID,1003.51,VALID,0,VALID,95.0101,VALID,0,VALID,24.0114,VALID,38,VALID,0.386328,
2011-09-29, 02:45:05,VALID,1003.51,VALID,0,VALID,94.8194,VALID,0.0815089,VALID,24.0326,VALID,38,VALID,0.383984,
2011-09-29, 02:46:05,VALID,1003.51,VALID,0,VALID,94.7125,VALID,0.0815089,VALID,24.0326,VALID,38,VALID,0.215625,
2011-09-29, 02:47:05,VALID,1003.51,VALID,0,VALID,94.8575,VALID,0,VALID,24.0521,VALID,38,VALID,0.0765625,
2011-09-29, 02:48:05,VALID,1003.5,VALID,0,VALID,94.9719,VALID,0.0815089,VALID,24.0716,VALID,38,VALID,0.166406,
2011-09-29, 02:49:05,VALID,1003.49,VALID,0,VALID,95.094,VALID,0,VALID,24.091,VALID,39,VALID,0.065625,
2011-09-29, 02:50:05,VALID,1003.5,VALID,0,VALID,95.0787,VALID,0.0815089,VALID,24.0892,VALID,39,VALID,0.0125,
2011-09-29, 02:51:05,VALID,1003.49,VALID,0,VALID,95.0864,VALID,0.0815089,VALID,24.13,VALID,39,VALID,0.0996094,
2011-09-29, 02:52:05,VALID,1003.5,VALID,0,VALID,94.949,VALID,0,VALID,24.1281,VALID,39,VALID,0.0441406,
2011-09-29, 02:53:05,VALID,1003.47,VALID,0,VALID,94.7965,VALID,0,VALID,24.1476,VALID,39,VALID,0.131641,
2011-09-29, 02:54:05,VALID,1003.5,VALID,0,VALID,94.8117,VALID,0.0815089,VALID,24.1689,VALID,39,VALID,0.253516,
2011-09-29, 02:55:05,VALID,1003.48,VALID,0,VALID,94.6973,VALID,0,VALID,24.1476,VALID,39,VALID,0.412109,
2011-09-29, 02:56:05,VALID,1003.47,VALID,0,VALID,94.766,VALID,0.0815089,VALID,24.1884,VALID,39,VALID,0.0550781,
2011-09-29, 02:57:05,VALID,1003.48,VALID,0,VALID,94.7507,VALID,0.0815089,VALID,24.1884,VALID,39,VALID,0.03125,
2011-09-29, 02:58:05,VALID,1003.48,VALID,0,VALID,94.6668,VALID,0.0815089,VALID,24.1476,VALID,39,VALID,0.06875,
2011-09-29, 02:59:05,VALID,1003.44,VALID,0,VALID,94.6286,VALID,0.0815089,VALID,24.1476,VALID,39,VALID,0.0679687,
2011-09-29, 03:00:05,VALID,1003.43,VALID,0,VALID,94.7049,VALID,0.0815089,VALID,24.1689,VALID,39,VALID,0.225781,
2011-09-29, 03:01:05,VALID,1003.45,VALID,0,VALID,94.6973,VALID,0,VALID,24.1281,VALID,39,VALID,0.206641,
2011-09-29, 03:02:05,VALID,1003.46,VALID,0,VALID,94.6897,VALID,0.0815089,VALID,24.1281,VALID,39,VALID,0.226172,
2011-09-29, 03:03:05,VALID,1003.43,VALID,0,VALID,94.7736,VALID,0,VALID,24.1105,VALID,39,VALID,0.201172,
2011-09-29, 03:04:05,VALID,1003.45,VALID,0,VALID,95.0635,VALID,0,VALID,24.13,VALID,39,VALID,0.154687,
2011-09-29, 03:05:05,VALID,1003.47,VALID,0,VALID,95.1321,VALID,0,VALID,24.1707,VALID,40,VALID,0.293359,
2011-09-29, 03:06:05,VALID,1003.47,VALID,0,VALID,95.033,VALID,0,VALID,24.1707,VALID,40,VALID,0.214062,
2011-09-29, 03:07:05,VALID,1003.46,VALID,0,VALID,94.9338,VALID,0,VALID,24.13,VALID,40,VALID,0.295703,
2011-09-29, 03:08:05,VALID,1003.47,VALID,0,VALID,94.8117,VALID,0,VALID,24.1513,VALID,40,VALID,0.497266,
2011-09-29, 03:09:05,VALID,1003.45,VALID,0,VALID,94.9719,VALID,0,VALID,24.1494,VALID,40,VALID,0.365625,
2011-09-29, 03:10:05,VALID,1003.44,VALID,0,VALID,94.8956,VALID,0,VALID,24.13,VALID,40,VALID,0.338281,
2011-09-29, 03:11:05,VALID,1003.41,VALID,0,VALID,94.7354,VALID,0,VALID,24.091,VALID,40,VALID,0.29375,
2011-09-29, 03:12:05,VALID,1003.41,VALID,0,VALID,94.766,VALID,0,VALID,24.0503,VALID,40,VALID,0.280859,
2011-09-29, 03:13:05,VALID,1003.38,VALID,0,VALID,94.9033,VALID,0,VALID,24.0734,VALID,40,VALID,0.225391,
2011-09-29, 03:14:05,VALID,1003.42,VALID,0,VALID,94.9872,VALID,0,VALID,24.0734,VALID,40,VALID,0.0207031,
2011-09-29, 03:15:05,VALID,1003.4,VALID,0,VALID,95.1703,VALID,0,VALID,24.0716,VALID,40,VALID,0.133203,
2011-09-29, 03:16:05,VALID,1003.4,VALID,0,VALID,95.1169,VALID,0,VALID,24.0521,VALID,40,VALID,0.328516,
2011-09-29, 03:17:05,VALID,1003.41,VALID,0,VALID,94.9719,VALID,0,VALID,24.0345,VALID,40,VALID,0.401563,
2011-09-29, 03:18:05,VALID,1003.41,VALID,0,VALID,95.1627,VALID,0.0815089,VALID,24.0308,VALID,40,VALID,0.367969,
2011-09-29, 03:19:05,VALID,1003.41,VALID,0,VALID,95.2237,VALID,0.0815089,VALID,24.0114,VALID,39,VALID,0.666797,
2011-09-29, 03:20:05,VALID,1003.42,VALID,0,VALID,95.1093,VALID,0.0815089,VALID,24.0326,VALID,39,VALID,0.358594,
2011-09-29, 03:21:05,VALID,1003.42,VALID,0,VALID,95.155,VALID,0.0815089,VALID,23.9919,VALID,39,VALID,0.223438,
2011-09-29, 03:22:05,VALID,1003.4,VALID,0,VALID,95.3229,VALID,0.0815089,VALID,23.9919,VALID,39,VALID,0.232422,
2011-09-29, 03:23:05,VALID,1003.39,VALID,0,VALID,95.4602,VALID,0.0815089,VALID,24.0326,VALID,39,VALID,0.164063,
2011-09-29, 03:24:05,VALID,1003.41,VALID,0,VALID,95.834,VALID,0.0815089,VALID,24.0697,VALID,39,VALID,0.0457031,
2011-09-29, 03:25:05,VALID,1003.41,VALID,0,VALID,95.9637,VALID,0.0815089,VALID,24.1281,VALID,40,VALID,0.368359,
2011-09-29, 03:26:05,VALID,1003.41,VALID,0,VALID,95.6585,VALID,0,VALID,24.1494,VALID,40,VALID,0.443359,
2011-09-29, 03:27:05,VALID,1003.41,VALID,0,VALID,95.4983,VALID,0,VALID,24.1476,VALID,25,VALID,0.691797,
2011-09-29, 03:28:05,VALID,1003.44,VALID,0,VALID,95.2466,VALID,0.0815089,VALID,24.1494,VALID,25,VALID,0.526953,
2011-09-29, 03:29:05,VALID,1003.44,VALID,0,VALID,95.0253,VALID,0.0815089,VALID,24.1087,VALID,25,VALID,0.404297,
2011-09-29, 03:30:05,VALID,1003.43,VALID,0,VALID,94.7736,VALID,0.0815089,VALID,24.0697,VALID,25,VALID,0.513281,
2011-09-29, 03:31:05,VALID,1003.43,VALID,0,VALID,95.094,VALID,0,VALID,24.1087,VALID,23,VALID,0.411719,
2011-09-29, 03:32:05,VALID,1003.43,VALID,0,VALID,94.9796,VALID,0.0815089,VALID,24.1087,VALID,23,VALID,0.396094,
2011-09-29, 03:33:05,VALID,1003.42,VALID,0,VALID,95.0711,VALID,0,VALID,24.1123,VALID,23,VALID,0.291797,
2011-09-29, 03:34:05,VALID,1003.43,VALID,0,VALID,94.9567,VALID,0,VALID,24.0929,VALID,23,VALID,0.180078,
2011-09-29, 03:35:05,VALID,1003.43,VALID,0,VALID,95.0864,VALID,0,VALID,24.0716,VALID,23,VALID,0.0363281,
2011-09-29, 03:36:05,VALID,1003.45,VALID,0,VALID,95.3457,VALID,0,VALID,24.1105,VALID,23,VALID,0.407422,
2011-09-29, 03:37:05,VALID,1003.44,VALID,0,VALID,95.6585,VALID,0,VALID,24.1494,VALID,23,VALID,0.286719,
2011-09-29, 03:38:05,VALID,1003.47,VALID,0,VALID,95.5975,VALID,0,VALID,24.1689,VALID,23,VALID,0.378906,
2011-09-29, 03:39:05,VALID,1003.45,VALID,0,VALID,95.3457,VALID,0,VALID,24.1494,VALID,23,VALID,0.239453,
2011-09-29, 03:40:05,VALID,1003.49,VALID,0,VALID,95.2542,VALID,0,VALID,24.1689,VALID,23,VALID,0.314453,
2011-09-29, 03:41:05,VALID,1003.47,VALID,0,VALID,95.2695,VALID,0,VALID,24.1494,VALID,23,VALID,0.360547,